GEFSGL_500_meanwind_180.txt.gz
Wind_Speed
12 12 12 12 13 13 13 14 14 15 15 14 14 14 13 13 13 14 14 15 15 15 15 15 15 15 16 16 16 16 16 16 16 16 17 17 17 17 18 19 19 19 20
12 12 13 13 14 14 15 15 16 16 16 15 15 15 15 15 15 16 16 16 16 16 16 16 16 17 17 17 17 17 17 18 18 18 18 19 19 19 20 20 21 22 22
13 13 14 14 15 16 16 17 17 17 17 17 16 17 17 17 17 17 17 17 18 18 18 18 18 18 18 19 19 19 19 20 20 20 21 21 22 22 23 23 23 24 24
14 15 15 15 16 17 17 17 17 17 18 18 18 18 18 18 18 19 19 19 19 19 20 20 20 20 20 21 21 21 21 22 22 23 23 24 24 25 25 26 26 27 27
15 15 15 15 15 16 17 17 18 18 19 19 19 19 19 20 19 19 20 20 20 21 21 21 21 22 22 22 23 23 23 24 25 25 26 27 27 28 28 29 29 29 29
15 16 16 16 17 17 17 18 19 19 19 20 20 20 21 21 21 21 22 22 22 22 22 22 22 23 24 24 25 25 26 26 27 28 28 29 30 30 31 31 31 31 31
17 17 17 18 18 19 19 20 20 20 21 21 21 21 22 23 23 23 23 23 23 24 24 24 24 25 26 27 28 28 28 29 30 30 31 31 32 33 33 33 33 33 32
18 18 18 19 20 20 20 21 21 21 21 22 22 23 23 24 24 24 24 24 25 25 26 26 26 27 28 28 29 30 31 31 32 33 34 34 34 34 35 35 34 34 34
20 19 20 20 21 21 21 22 22 22 22 23 24 24 24 24 25 25 26 26 27 27 28 28 29 29 30 30 31 32 33 34 34 35 36 36 36 36 36 36 36 36 36
20 21 21 21 22 22 22 23 23 23 23 24 24 24 25 25 26 27 28 28 29 30 30 30 31 32 33 33 34 35 35 36 36 37 37 37 37 38 38 38 39 39 39
21 21 22 22 22 23 23 24 24 24 25 25 25 26 27 27 28 29 30 30 31 31 32 32 33 34 35 35 36 37 38 38 39 39 39 39 39 39 40 40 41 42 42
22 23 23 23 24 24 25 25 25 25 26 26 27 28 29 29 30 31 31 32 33 34 34 34 35 35 37 38 38 39 40 41 41 41 41 41 41 41 42 43 43 43 43
25 25 25 25 26 26 26 26 27 27 27 28 29 30 30 31 32 33 33 34 35 36 36 37 37 38 39 40 40 41 42 42 43 43 43 43 43 43 44 45 45 45 44
27 27 27 27 27 27 28 28 29 29 30 31 32 32 33 33 34 35 35 36 36 37 38 39 39 40 40 41 42 43 43 44 45 45 45 45 45 46 47 47 47 46 46
28 28 29 29 29 29 30 30 31 32 33 33 34 34 35 35 36 36 37 37 38 39 40 41 41 42 42 43 44 44 45 45 46 47 47 47 48 49 48 48 48 48 48
29 30 30 31 31 31 31 32 32 33 34 34 35 36 36 36 37 38 39 39 40 41 42 42 43 43 44 45 46 46 47 47 48 49 49 49 50 50 49 49 49 50 50
32 32 32 32 32 32 33 33 33 34 35 36 37 37 38 38 39 40 41 42 43 43 43 44 44 45 46 47 47 48 49 49 50 50 51 51 51 51 50 50 51 51 51
33 33 33 33 34 34 34 35 35 35 36 37 38 39 40 41 42 43 44 44 44 45 45 45 46 46 47 48 49 49 50 50 51 51 52 52 52 52 52 52 53 52 52
34 34 34 34 35 35 36 36 37 38 38 38 39 40 42 43 44 44 45 46 46 47 47 47 48 48 49 50 50 50 50 51 51 52 52 52 53 53 53 54 54 53 52
34 34 35 35 35 36 37 38 38 39 40 41 41 42 43 44 45 46 46 47 47 48 48 49 49 50 50 51 51 51 52 52 52 53 53 53 54 54 55 54 54 53 53
34 34 35 36 37 37 38 39 40 41 42 42 43 44 45 45 46 46 47 47 47 48 48 49 49 50 50 51 51 52 52 53 53 54 54 54 54 54 54 54 54 53 53
35 35 36 37 38 39 39 40 41 42 43 43 44 44 45 46 46 46 47 47 48 48 49 50 50 50 50 50 50 51 52 52 53 54 54 55 54 54 54 54 53 53 53
36 37 38 39 40 40 41 42 42 43 43 44 45 45 46 46 46 46 47 47 48 48 49 50 50 49 49 50 50 51 51 52 52 54 54 54 53 53 53 52 52 51 51
38 39 39 40 40 41 42 42 43 43 43 44 44 45 45 46 46 46 46 47 47 48 48 48 48 49 49 50 50 51 52 52 52 54 54 53 52 52 51 51 50 49 48
39 39 40 40 41 42 42 43 43 43 44 45 45 45 45 46 46 46 47 47 47 48 48 48 48 49 49 50 50 50 51 52 53 53 53 52 51 50 50 49 48 46 45
39 40 41 41 42 42 42 42 43 43 44 44 45 45 45 46 46 47 47 47 47 47 47 48 48 49 49 50 50 50 51 51 51 51 51 50 49 49 48 46 44 43 43

GEFSGL_500_meanwind_186.txt.gz
Wind_Speed
12 12 13 13 13 13 13 13 12 12 13 13 14 14 14 14 14 14 14 15 15 15 15 15 15 15 16 16 16 15 15 16 16 16 17 17 16 16 16 16 17 18 19
13 13 13 14 14 14 14 15 14 14 15 15 15 16 16 16 15 16 16 16 16 16 16 16 16 17 17 18 17 17 18 18 18 18 19 19 19 19 19 19 19 20 21
13 14 14 15 15 16 16 15 15 16 16 16 16 16 16 17 17 17 17 17 18 17 17 18 18 18 19 19 19 20 20 20 21 21 21 21 22 22 22 22 22 23 24
14 15 15 16 16 16 16 16 16 16 16 16 16 16 16 17 18 18 18 18 19 19 19 19 20 20 20 21 21 22 22 23 23 23 23 23 24 24 25 25 25 26 27
15 15 16 16 16 16 16 16 16 16 16 16 17 17 18 18 19 19 19 20 20 20 21 21 21 22 22 23 23 23 24 24 25 25 25 26 26 27 27 28 28 29 30
15 15 16 16 16 16 16 16 17 17 17 18 18 18 19 19 20 20 20 21 21 22 22 23 23 23 24 24 25 26 26 26 26 27 27 28 29 29 30 30 31 32 32
15 16 17 17 17 17 17 18 18 19 19 19 20 20 20 20 20 21 21 22 23 23 23 24 24 24 25 26 27 27 28 28 29 29 30 30 31 31 32 32 33 34 34
17 17 17 18 18 18 18 19 19 19 19 19 20 20 21 21 22 22 23 23 24 24 25 25 25 26 27 27 28 29 30 30 30 31 32 33 33 34 35 35 36 36 35
18 18 19 19 19 19 19 20 20 20 20 21 21 21 22 23 23 24 24 25 25 25 26 26 27 28 29 29 30 31 31 32 32 33 34 35 35 36 37 37 37 37 37
18 19 20 20 20 20 21 21 22 22 22 23 23 23 24 24 25 25 25 26 26 27 27 28 28 29 30 31 32 33 33 34 34 35 36 37 37 38 39 39 39 40 40
19 19 20 20 21 21 22 23 24 24 24 24 24 25 25 25 25 26 27 27 28 28 28 29 30 31 32 33 34 35 35 36 37 38 39 39 40 40 40 41 42 43 43
20 21 22 22 23 23 23 24 24 25 25 26 26 26 27 27 27 28 29 29 30 30 30 31 32 33 34 35 36 37 38 39 40 41 41 42 43 43 43 44 45 45 46
22 22 23 23 24 24 25 25 25 26 26 27 27 27 28 28 29 29 30 31 31 32 32 33 34 35 36 37 38 39 40 41 42 43 44 44 45 46 46 47 47 48 48
24 24 24 24 25 26 26 27 27 28 28 28 28 28 29 30 30 31 32 33 34 34 35 36 37 38 38 39 40 41 42 43 44 45 46 46 47 47 48 48 49 49 49
26 26 26 26 27 27 28 28 29 29 30 30 30 30 30 31 32 33 34 35 36 37 38 38 39 40 41 42 42 43 44 45 46 47 48 48 48 49 50 50 50 50 49
27 28 28 28 29 29 29 29 29 30 30 31 31 32 32 33 33 35 36 37 38 39 40 41 42 43 43 44 44 45 46 47 48 48 49 50 50 51 51 51 51 51 50
28 28 28 29 29 29 30 30 31 31 32 32 33 34 34 35 36 37 38 39 40 41 42 42 43 44 44 45 45 46 47 48 49 50 51 51 51 52 52 52 51 51 52
28 29 29 30 30 31 31 32 32 33 33 34 34 35 36 36 38 39 39 40 41 42 43 43 44 44 45 46 47 47 48 49 50 50 51 51 52 52 53 53 52 52 52
29 30 30 31 32 33 33 34 34 35 35 35 36 37 38 39 40 41 41 42 43 43 44 45 45 46 46 47 48 48 49 50 50 51 51 51 52 52 52 52 53 53 53
30 31 32 33 33 34 35 35 36 36 37 38 38 39 40 41 42 43 43 44 44 45 46 46 47 47 47 47 48 48 49 50 50 50 51 51 51 52 52 52 52 52 52
32 33 33 34 34 35 36 37 38 38 39 39 40 41 43 43 44 44 45 45 46 46 47 47 47 47 47 48 49 49 49 50 50 50 50 50 50 51 50 50 50 51 51
34 34 35 35 35 36 37 37 38 39 40 41 42 43 44 45 45 45 46 45 46 46 46 47 47 47 48 49 49 49 49 49 49 50 51 51 51 50 50 50 50 50 50
35 35 36 36 37 37 38 39 40 40 41 42 43 44 44 44 45 45 45 45 45 45 46 46 47 48 48 48 48 48 49 49 49 50 50 50 49 49 49 49 50 50 49
35 36 37 38 38 39 40 40 41 42 42 43 44 44 44 45 45 44 45 45 45 45 46 47 47 47 47 47 47 47 48 48 49 49 49 48 48 48 48 48 48 48 48
36 37 38 39 40 40 40 41 41 42 42 43 43 43 43 43 44 44 45 45 46 46 47 47 47 47 47 47 47 47 47 47 47 47 47 47 47 47 47 47 47 47 46
38 39 39 39 39 39 40 41 41 41 42 42 42 42 43 43 44 44 44 45 46 46 47 47 47 47 47 47 46 46 46 46 46 46 47 47 47 47 47 46 46 45 44

GEFSGL_500_meanwind_192.txt.gz
Wind_Speed
12 12 12 12 12 13 13 14 14 14 14 15 15 15 15 15 16 16 16 16 17 17 17 17 16 16 16 16 17 17 18 18 18 18 18 19 19 19 19 19 19 19 20
13 13 13 13 14 14 14 15 15 15 15 16 16 16 16 16 17 17 17 17 18 18 18 18 18 18 18 18 18 19 19 19 20 20 20 21 21 22 22 22 22 22 22
13 13 13 14 15 15 16 16 16 16 17 17 17 17 18 18 18 18 18 18 19 19 19 20 19 19 20 20 21 21 21 21 22 22 22 23 23 24 24 24 25 25 25
14 14 15 15 15 16 17 17 18 18 18 18 19 18 18 18 18 18 18 19 19 20 20 20 21 21 21 22 22 22 22 23 24 24 24 24 25 25 26 26 27 27 28
15 15 16 16 16 16 17 18 18 18 19 19 19 19 18 19 19 19 19 19 20 21 21 22 22 23 23 23 24 24 24 25 25 26 26 26 27 27 28 28 29 30 30
15 15 16 16 17 17 18 18 18 19 19 19 19 20 20 20 20 21 21 21 22 22 22 22 23 24 24 24 25 25 26 26 27 27 28 28 28 29 29 30 30 31 31
16 16 16 17 17 18 18 19 19 19 19 19 20 20 21 22 22 22 23 23 23 23 23 24 24 25 25 26 26 27 27 28 28 29 29 30 30 30 31 31 31 32 32
16 17 17 17 18 18 18 19 19 20 20 21 21 21 21 22 22 22 22 22 23 24 24 24 25 26 27 27 28 28 28 29 30 30 30 31 31 32 32 33 33 34 35
17 17 17 18 18 19 19 19 20 21 21 22 22 22 22 22 22 23 23 23 24 25 26 26 26 27 27 28 29 29 30 30 31 31 32 33 34 35 36 36 37 38 38
17 17 18 19 19 20 20 21 21 22 22 23 23 23 23 23 24 24 24 24 25 25 26 27 27 28 28 29 30 31 31 32 33 33 34 36 37 38 38 39 40 41 42
17 18 18 19 19 20 21 22 22 23 23 23 23 23 24 24 24 25 25 25 26 27 27 28 29 30 31 31 32 33 34 35 35 36 37 38 39 40 41 42 43 44 44
18 19 19 19 20 21 22 22 23 23 23 24 24 25 25 25 26 26 27 27 28 29 29 30 31 32 33 34 34 35 36 37 38 39 40 41 42 42 43 44 45 46 47
20 20 20 21 22 23 23 23 24 24 24 25 26 26 27 27 28 29 29 30 30 31 31 32 33 34 35 35 36 37 38 39 40 41 42 43 44 44 45 46 47 48 48
21 22 22 23 23 23 24 24 25 26 26 27 27 28 28 29 30 30 31 32 32 33 34 34 35 36 37 38 39 40 41 42 43 44 45 46 46 46 47 48 48 49 50
23 23 23 23 24 24 25 26 27 27 28 29 29 30 30 31 32 33 33 34 35 36 36 37 37 38 39 40 41 42 43 44 45 45 46 46 46 47 48 49 49 50 51
24 24 25 25 25 26 27 28 28 29 30 31 31 32 32 33 34 35 35 36 37 37 38 39 39 40 41 42 43 44 44 45 46 47 47 47 48 49 49 50 51 51 51
24 24 25 26 28 29 29 29 30 31 32 33 33 34 34 35 36 36 37 38 39 40 40 41 41 42 42 43 44 45 46 46 47 47 48 49 50 50 51 51 51 51 50
26 26 27 28 29 30 31 31 32 33 34 34 35 36 36 37 37 38 39 39 40 41 41 41 42 43 44 45 45 46 46 47 47 48 49 49 50 50 51 51 51 50 50
28 28 29 30 31 32 32 33 34 35 36 36 37 38 38 39 39 40 40 41 41 41 42 42 43 44 45 46 46 47 47 48 49 49 50 50 50 50 50 50 50 49 49
29 30 31 32 33 34 34 35 36 36 37 38 39 39 40 40 41 41 42 42 43 43 44 45 45 46 47 47 47 48 48 49 49 50 50 50 50 50 49 49 49 49 48
31 32 33 34 35 36 36 37 37 38 38 39 40 41 41 42 42 42 43 43 44 45 46 46 47 47 47 47 48 48 48 49 49 49 50 50 49 49 49 49 48 48 48
33 33 34 35 36 36 37 37 38 39 40 40 41 41 42 43 43 43 44 45 46 46 47 47 47 47 47 47 48 48 49 49 49 49 49 49 49 48 48 48 47 48 48
34 34 35 36 37 37 38 38 39 40 41 41 41 42 42 43 43 44 45 45 46 45 46 46 46 47 47 47 48 48 49 49 49 49 48 48 48 47 47 47 47 47 47
35 36 36 37 38 39 39 40 41 41 42 42 43 43 43 43 43 44 44 44 44 44 45 45 46 46 46 47 47 47 47 48 48 47 47 47 46 46 46 46 46 46 46
37 37 38 39 40 41 41 41 42 42 42 43 43 43 43 43 43 43 43 43 44 44 44 45 45 45 46 46 47 46 46 47 47 46 46 46 46 45 45 46 46 45 45
38 39 40 40 41 41 41 41 41 42 43 43 43 42 42 42 43 43 43 43 43 43 44 44 45 45 45 45 45 46 46 46 46 46 45 45 45 45 45 45 44 44 44

GEFSGL_500_meanwind_198.txt.gz
Wind_Speed
12 13 13 13 12 12 12 12 12 12 12 13 13 12 13 13 14 14 14 15 15 15 15 15 15 15 15 15 15 16 16 17 17 17 18 18 19 19 20 20 20 20 21
13 14 14 13 13 13 13 13 13 13 13 13 14 14 14 14 14 14 15 15 15 15 15 15 15 15 15 15 16 17 17 18 18 18 19 20 20 21 22 22 22 22 22
14 14 14 13 13 13 13 14 14 14 14 15 15 15 15 15 15 16 16 16 17 17 17 17 17 17 17 17 17 18 19 19 20 20 21 21 22 23 23 24 24 24 25
14 15 15 14 14 15 15 15 16 16 16 16 16 16 16 16 17 17 17 17 18 18 18 18 18 18 18 19 19 20 21 21 21 22 22 23 24 24 25 25 25 26 27
15 15 15 16 16 16 16 16 17 17 17 17 17 17 17 17 17 17 18 18 19 19 18 19 19 19 20 20 21 21 22 22 23 23 24 25 25 25 26 26 27 28 28
16 16 16 17 17 17 17 17 17 17 17 17 17 18 18 18 18 19 19 19 19 20 20 20 20 21 21 21 22 23 23 24 24 24 25 25 26 27 27 28 29 29 30
16 16 16 17 17 17 17 17 18 18 18 19 19 19 19 19 19 19 19 19 20 20 21 22 22 22 23 23 24 25 25 25 26 26 26 27 27 28 29 30 30 31 31
16 16 17 17 17 17 17 18 18 19 19 19 19 19 19 19 19 19 20 20 21 21 22 23 24 24 24 25 26 26 26 27 27 28 29 29 29 30 31 32 33 33 34
17 17 18 18 18 18 18 19 19 19 19 19 19 19 20 20 20 21 21 22 22 23 23 24 25 26 27 27 28 28 28 29 30 30 31 31 32 33 34 35 35 36 36
17 18 19 19 19 19 19 19 19 19 19 19 19 20 20 20 21 22 22 23 23 24 25 26 27 28 29 29 29 30 30 31 32 32 33 34 35 35 36 37 37 38 39
17 18 19 19 19 19 19 19 19 19 20 20 20 21 21 22 22 23 24 25 26 26 27 28 28 28 29 29 30 31 32 33 34 35 35 36 37 38 38 39 40 40 41
18 19 19 20 19 19 20 20 20 20 21 21 22 23 23 23 24 25 26 27 27 28 29 30 30 30 30 31 32 33 34 35 36 37 38 39 39 40 40 41 42 43 43
20 20 21 21 21 21 21 22 22 22 22 23 23 24 24 24 25 26 27 28 29 30 31 31 32 33 33 34 35 36 36 37 38 39 40 41 41 42 43 43 44 44 45
22 22 22 22 22 22 23 23 24 24 24 24 24 25 25 26 27 28 29 30 31 32 32 33 34 34 35 36 36 38 38 39 39 40 41 42 42 43 44 45 46 46 46
24 24 24 23 23 23 24 24 25 25 25 26 26 26 27 28 29 31 32 32 33 34 34 35 35 36 37 38 38 39 40 40 41 41 42 42 43 44 45 46 47 47 47
24 24 24 24 24 24 25 26 26 27 27 28 28 29 30 31 32 33 34 35 36 36 36 36 37 38 39 39 40 41 41 42 42 43 44 44 45 45 46 47 47 48 47
25 25 25 26 26 26 27 28 29 29 30 30 31 32 33 33 34 35 36 37 37 38 38 38 39 40 41 41 41 42 42 42 43 44 45 45 46 47 47 47 48 48 47
26 27 28 29 29 29 29 30 31 32 33 33 33 34 35 36 36 37 38 38 38 39 39 39 40 41 41 42 42 43 44 44 45 45 46 46 47 47 48 47 47 47 47
28 29 29 30 31 31 32 33 33 34 34 35 35 36 37 38 38 39 40 40 40 40 41 41 42 42 42 43 43 44 45 46 46 47 47 47 47 48 48 47 47 47 47
30 30 31 31 32 33 33 33 34 35 35 36 37 37 38 39 40 40 40 41 41 42 42 42 42 43 43 43 44 45 46 46 47 47 47 48 48 48 48 47 47 47 47
31 31 32 32 32 33 33 34 34 35 36 37 38 39 39 40 40 41 41 41 41 42 41 42 42 43 43 43 44 45 45 46 47 47 47 47 47 47 47 47 47 47 46
32 32 32 32 32 33 34 35 35 36 37 38 39 40 40 41 41 40 41 41 41 41 41 41 42 43 43 44 45 46 45 46 46 46 47 47 47 46 46 46 46 46 46
32 32 32 33 34 34 35 36 36 37 38 39 39 40 40 41 41 41 41 41 41 41 41 42 43 43 43 44 45 45 46 46 46 45 45 45 45 45 45 45 45 45 45
32 32 33 34 35 36 36 36 37 38 39 40 40 40 40 41 41 41 41 41 41 41 41 41 42 43 43 44 44 45 45 45 45 45 45 44 44 44 44 44 44 44 44
32 33 34 35 36 36 36 37 38 39 39 40 41 41 41 41 41 41 41 41 41 41 41 42 42 42 43 43 43 44 44 43 43 43 43 42 43 43 43 43 42 42 42
34 34 34 34 35 36 36 37 38 39 39 40 41 41 41 41 41 41 41 41 41 42 42 42 42 42 42 43 43 42 42 42 42 41 41 41 41 41 41 41 40 40 40

GEFSGL_500_meanwind_204.txt.gz
Wind_Speed
13 12 12 12 12 13 13 13 14 14 14 14 14 14 14 14 14 14 15 15 15 15 15 16 16 16 16 16 17 17 17 17 17 17 17 18 18 18 18 18 19 19 20
12 12 12 13 13 14 14 14 14 14 14 14 15 15 15 15 15 15 16 16 17 17 17 17 17 17 17 17 18 18 18 19 19 19 19 20 20 20 20 21 21 21 22
14 14 14 14 14 14 14 15 15 15 15 15 16 16 16 16 17 17 17 18 18 18 18 18 18 18 18 19 19 19 20 20 20 20 20 21 22 22 23 23 23 23 24
14 14 15 14 14 15 15 16 16 16 16 16 17 17 17 18 18 18 18 19 19 19 18 18 18 19 19 19 20 20 21 22 22 22 23 23 23 24 24 24 24 24 25
15 15 15 15 15 15 16 16 17 17 17 17 18 18 18 19 19 19 20 20 19 19 19 19 19 20 21 21 21 22 23 23 24 24 24 25 25 25 25 26 26 26 26
16 16 16 16 16 16 16 17 17 17 18 18 18 19 19 20 20 20 21 21 21 21 21 21 22 23 23 23 24 24 25 25 25 26 27 27 27 26 27 27 28 28 28
16 17 17 17 17 17 17 17 17 18 18 19 19 20 20 20 21 21 22 22 22 22 23 23 24 24 24 25 26 26 27 27 28 28 28 28 29 29 29 29 30 30 30
16 16 17 17 18 18 18 18 18 18 18 19 19 19 20 21 22 22 23 23 23 23 24 24 24 25 25 26 26 27 28 29 29 29 30 30 31 32 32 32 33 33 33
17 16 16 17 18 18 19 18 18 19 19 19 20 20 21 21 22 23 24 24 25 25 25 26 26 26 27 27 28 28 29 30 31 31 31 32 33 33 34 35 36 36 36
17 17 17 17 18 19 19 19 19 19 20 21 21 21 22 22 23 24 25 26 26 26 26 26 27 28 29 29 29 30 31 31 32 32 33 33 34 35 36 37 38 39 39
17 17 18 18 18 19 19 19 19 20 21 21 22 22 23 24 24 25 25 26 26 27 27 28 28 29 30 31 32 32 32 33 33 33 34 35 36 37 37 38 39 40 40
19 19 19 19 20 20 20 21 21 21 22 23 23 24 25 25 26 26 27 28 28 29 29 30 30 32 32 33 33 33 33 33 34 35 36 36 37 37 38 39 40 40 41
20 20 20 20 21 21 22 22 22 23 23 24 24 25 25 26 26 27 28 29 30 31 31 32 32 33 33 33 33 34 34 35 35 36 37 37 38 38 39 40 40 41 42
21 21 21 21 22 22 23 23 24 24 25 25 25 26 26 27 28 29 30 31 32 32 32 33 33 34 34 34 35 35 36 37 38 38 38 38 39 40 41 41 42 42 43
22 23 23 23 23 24 25 25 25 25 26 26 27 28 28 29 30 31 32 33 34 34 35 35 36 35 35 36 37 37 37 38 38 39 39 40 41 42 42 43 43 44 44
24 24 24 24 24 25 27 27 28 28 28 29 30 30 30 31 32 33 34 34 35 36 37 37 37 37 37 37 37 37 38 38 38 39 40 41 42 42 42 43 44 45 46
25 25 26 27 27 27 29 29 29 30 30 31 31 32 32 33 35 36 36 37 37 38 38 38 38 38 37 37 37 38 38 39 39 40 41 42 42 43 44 44 45 46 47
26 27 27 28 28 29 29 30 31 31 31 32 32 33 34 35 36 37 38 39 38 38 38 38 38 38 38 38 38 39 40 41 42 42 43 43 44 45 46 46 47 48 48
28 28 28 29 29 30 31 31 31 32 32 32 33 34 34 35 37 38 38 38 38 38 38 38 38 39 38 39 39 40 41 42 42 43 44 44 45 46 47 48 48 49 48
29 29 29 30 31 31 32 32 32 32 32 33 34 34 35 36 37 37 37 37 37 37 38 38 39 39 39 40 40 41 42 42 43 44 45 45 46 46 47 48 48 48 47
29 29 30 30 31 32 32 32 33 34 34 34 35 35 36 36 37 37 38 38 38 38 39 39 39 39 40 40 41 41 42 43 44 44 44 45 46 46 47 47 46 46 45
29 30 30 31 32 32 32 33 33 33 34 34 34 35 35 36 37 38 38 38 38 38 39 39 39 39 40 41 41 42 42 43 43 44 44 45 45 45 45 44 44 43 43
30 31 31 32 33 33 32 33 33 33 34 35 35 35 36 36 37 38 38 38 38 39 39 39 40 40 41 41 42 42 42 43 43 43 44 43 43 43 42 42 42 42 42
31 31 32 32 33 33 32 32 33 33 34 35 35 36 36 37 37 38 38 39 39 39 40 40 40 41 42 42 42 42 41 41 42 42 42 42 42 41 41 40 41 41 41
31 32 32 32 32 32 33 33 33 34 35 35 36 37 37 37 37 38 39 39 40 40 41 41 41 41 42 41 41 41 41 40 41 41 41 41 40 40 40 40 40 40 39
32 31 32 32 32 33 33 34 34 35 35 36 37 37 38 38 38 38 39 40 40 41 41 40 40 40 40 39 39 39 39 40 40 41 40 40 39 39 40 40 40 39 38

GEFSGL_500_meanwind_210.txt.gz
Wind_Speed
13 13 13 13 13 13 13 13 13 13 13 13 13 13 14 14 14 14 14 14 15 15 16 16 16 16 16 16 16 17 17 17 17 17 17 18 18 18 19 19 19 20 20
13 13 13 13 13 14 14 14 14 14 14 14 14 14 14 14 14 15 15 15 16 16 16 17 17 17 17 17 17 18 18 18 18 18 19 19 19 20 20 20 21 21 21
13 13 14 14 15 14 14 14 14 14 14 14 14 15 15 15 15 16 16 16 17 17 17 18 18 18 18 18 19 19 19 19 20 20 21 21 21 21 21 22 22 22 23
13 14 14 15 15 15 15 15 15 16 16 16 16 16 16 17 17 17 17 18 18 18 18 18 19 19 19 20 21 21 22 22 22 22 22 23 23 23 23 23 24 24 25
15 15 15 15 15 15 16 16 17 17 16 17 17 17 17 18 18 18 19 19 19 19 20 20 20 21 21 21 22 23 23 24 24 24 24 24 25 25 25 26 26 27 27
15 15 16 16 16 16 16 17 17 17 17 17 18 18 18 18 18 18 19 20 20 21 21 21 21 22 22 23 24 24 24 25 25 25 26 26 26 27 27 28 28 29 29
14 14 15 15 16 16 16 16 16 17 17 17 17 17 17 18 18 19 20 20 20 21 21 22 22 23 24 24 25 25 26 26 26 27 27 27 28 29 30 30 31 31 31
14 14 15 15 16 16 16 17 17 17 17 18 18 19 19 19 19 20 20 21 21 22 22 23 24 25 25 26 27 27 27 28 29 29 29 30 31 31 32 32 33 33 33
14 15 15 16 17 17 18 18 18 18 18 19 19 19 19 20 20 21 21 22 23 23 24 26 26 26 27 28 28 28 29 30 30 31 31 31 31 32 33 34 34 35 35
15 15 16 17 18 18 19 19 19 19 19 20 20 20 21 21 21 22 23 23 24 25 26 27 28 28 29 29 29 30 31 31 31 31 31 32 33 34 34 35 35 36 36
16 17 17 17 18 19 20 20 20 20 21 21 22 22 22 22 23 24 25 25 26 27 27 28 29 29 30 31 32 32 32 32 32 33 33 34 35 35 35 36 36 37 37
18 19 19 19 20 21 21 21 22 22 23 23 23 24 24 25 26 26 27 27 28 29 30 30 30 31 32 33 34 34 34 34 34 34 34 35 35 36 36 37 38 39 39
20 20 20 21 21 22 22 22 22 23 24 24 24 25 25 26 27 27 28 29 29 30 31 31 32 33 34 34 35 36 35 36 36 36 36 36 36 37 37 38 39 40 40
21 22 22 22 23 23 23 23 23 24 25 25 25 26 27 27 28 28 29 30 31 32 32 32 33 34 34 35 36 36 36 36 36 36 36 37 37 38 38 39 39 40 40
23 24 24 24 24 24 25 25 25 25 26 26 26 27 28 29 30 30 30 30 31 31 32 33 34 34 35 35 36 36 36 36 36 37 37 37 38 38 39 40 40 40 41
24 25 25 26 26 26 26 27 27 26 27 27 27 28 28 29 30 30 31 31 32 32 33 33 34 34 35 36 36 36 37 37 38 38 38 38 39 39 40 40 40 41 42
25 25 25 26 26 26 27 27 27 28 28 28 28 29 29 30 30 30 30 31 32 33 33 33 34 34 35 36 36 37 38 39 39 39 39 39 40 40 40 41 41 42 43
26 26 26 26 27 27 27 27 27 28 28 28 28 29 30 30 30 31 31 32 33 34 35 35 35 35 35 35 36 37 38 38 39 39 39 40 40 40 41 41 42 43 44
26 26 26 27 27 28 28 28 28 29 29 29 29 30 30 31 31 32 32 33 34 34 35 35 35 35 35 35 35 36 36 37 37 38 38 39 40 40 41 42 43 43 44
26 27 27 28 28 28 28 29 30 29 30 30 30 30 31 32 33 33 34 34 35 35 35 35 35 35 35 35 36 36 37 37 38 38 38 39 39 40 41 42 42 42 43
27 28 28 29 29 29 29 29 29 30 30 31 31 32 32 33 33 34 34 35 35 35 35 35 35 36 36 37 37 37 38 38 38 38 38 38 39 39 40 41 41 42 43
28 29 29 29 29 30 30 30 30 31 31 32 33 33 32 33 33 33 33 34 34 35 35 35 36 36 37 38 38 38 38 38 38 38 38 38 39 40 41 41 41 42 43
28 28 28 29 29 30 30 30 30 31 31 32 32 32 32 32 32 32 33 34 34 35 36 36 37 37 38 38 39 39 38 38 38 38 38 38 39 39 40 40 41 41 42
29 29 28 29 29 29 29 29 30 31 31 32 32 32 32 32 33 33 34 34 34 35 36 36 36 37 37 38 37 37 37 37 37 37 37 38 39 39 40 40 41 41 41
29 28 28 28 28 28 29 30 30 31 32 32 32 32 32 32 32 33 33 33 34 34 35 35 36 36 37 37 37 36 36 37 37 37 38 38 38 39 39 40 40 40 40
28 28 28 28 28 29 30 30 31 31 32 32 32 32 32 32 33 33 33 33 34 34 35 36 36 37 37 37 37 37 37 38 37 37 38 38 38 39 39 39 39 39 39

GEFSGL_500_meanwind_216.txt.gz
Wind_Speed
13 13 12 12 12 12 12 12 13 13 13 13 13 13 13 13 13 14 14 14 14 15 16 16 17 17 17 18 18 19 19 19 19 18 18 19 20 20 21 21 21 21 20
13 13 13 12 12 12 12 12 13 13 13 14 14 14 14 14 14 15 15 16 16 16 16 17 17 18 18 19 20 19 20 20 20 19 19 20 20 21 21 22 22 22 22
13 13 13 13 13 12 13 13 13 14 14 15 15 15 15 15 15 16 16 16 17 17 17 17 18 19 19 20 20 20 21 21 21 21 21 21 22 22 22 23 23 23 23
14 14 13 13 13 13 13 13 14 14 15 15 15 15 15 15 16 16 16 17 18 18 18 18 19 19 20 20 20 21 22 22 23 23 23 23 23 24 24 24 24 24 25
14 14 13 13 13 14 14 14 15 15 15 16 15 15 15 16 16 17 17 18 19 19 18 19 19 19 20 21 21 22 22 23 24 24 24 25 25 25 25 26 26 26 27
15 14 15 15 15 15 15 15 15 15 15 16 16 16 16 17 17 18 18 19 19 19 19 20 20 21 22 22 22 23 24 24 25 25 26 26 27 27 26 27 27 27 28
15 16 16 16 16 16 16 16 16 16 16 16 17 17 18 19 20 20 20 20 20 20 21 21 22 22 23 24 24 25 26 26 26 27 28 28 28 28 28 29 29 29 30
16 16 16 16 16 16 17 17 17 18 18 18 19 19 20 21 21 21 21 21 21 22 22 23 23 24 25 26 27 27 27 28 28 29 29 29 29 29 30 30 31 31 32
17 16 17 17 17 17 18 18 19 19 20 20 20 21 21 22 22 22 23 23 23 24 24 25 25 26 27 28 29 29 29 29 30 30 31 31 31 31 32 32 33 33 33
18 18 18 19 19 19 20 19 20 20 21 21 22 22 23 23 23 24 24 25 25 26 26 27 27 28 29 29 30 30 30 31 31 31 32 32 32 33 33 34 35 35 35
20 20 20 20 20 20 21 21 21 21 22 23 23 23 24 24 25 25 26 26 27 28 28 28 29 29 30 30 31 31 31 32 32 32 33 33 34 34 35 36 36 36 36
21 21 21 21 21 21 21 22 22 23 23 23 24 25 25 26 26 26 27 28 28 28 29 29 29 29 30 31 32 32 32 33 34 34 34 35 35 36 36 36 36 37 37
21 21 22 22 22 22 23 23 23 24 25 25 25 26 26 27 27 27 27 28 28 29 29 29 29 30 31 32 32 32 33 33 34 34 35 36 37 37 37 37 37 37 37
22 23 23 23 23 24 24 24 24 26 26 26 26 26 26 27 27 28 28 28 28 29 29 29 30 31 32 32 32 33 33 33 34 34 35 36 37 37 37 37 37 37 37
23 24 24 24 25 25 25 25 26 27 27 27 26 27 27 27 28 28 28 29 29 30 30 30 31 31 32 32 33 33 34 34 34 35 36 36 36 36 36 37 36 36 36
24 24 24 25 25 26 26 26 26 26 27 27 27 27 28 29 29 29 29 29 30 30 30 31 32 32 32 33 34 34 34 34 34 35 35 36 35 35 35 35 35 36 36
26 25 24 25 25 26 26 26 25 26 26 27 27 28 28 29 29 30 30 30 30 30 31 32 32 33 33 34 34 34 34 34 35 35 35 35 34 34 34 35 35 36 36
27 26 26 25 25 25 25 26 26 25 25 26 28 29 29 29 30 31 31 30 30 31 32 32 32 33 34 34 34 34 34 34 35 35 35 35 35 35 35 35 36 37 37
27 27 27 27 26 26 26 26 26 26 26 27 28 29 30 30 31 31 31 31 31 32 32 33 33 34 34 34 34 33 33 33 34 34 35 35 35 35 35 36 37 38 39
28 28 28 27 26 25 25 26 27 27 28 29 30 30 31 31 31 31 31 31 32 33 33 33 33 33 33 33 33 32 32 33 34 35 35 35 35 35 35 36 36 37 38
29 28 28 28 27 26 26 26 27 28 29 30 30 31 31 31 31 31 32 32 32 32 33 33 33 33 33 33 32 32 33 34 34 35 34 35 35 35 36 36 37 38 39
29 29 29 28 28 28 28 28 28 29 29 30 31 31 31 31 31 32 32 32 32 32 32 32 32 32 32 33 33 33 34 34 35 35 35 35 35 36 36 37 37 38 39
29 29 30 29 29 29 30 30 30 31 31 31 31 31 31 31 31 31 31 31 32 31 31 32 32 32 33 33 34 34 34 34 34 35 35 34 35 36 36 37 37 38 39
29 29 29 29 28 29 29 30 30 31 31 30 30 30 30 30 30 30 31 31 31 31 31 31 31 32 32 33 33 34 34 34 35 35 34 34 35 36 37 37 38 38 39
29 29 30 29 29 29 29 30 30 31 31 31 30 30 30 30 30 30 30 29 29 29 30 31 31 31 32 32 33 33 34 35 35 35 34 34 35 36 36 37 38 38 38
29 29 29 29 29 30 30 31 32 32 31 31 31 31 31 30 30 29 29 29 29 30 31 31 31 32 32 33 33 34 34 35 35 35 35 35 35 36 36 37 37 37 37